Monday, July 23, 2018, 6:12 AM GMT
Back to Local

CYYG, Charlottetown, P. E. I.

Location: , , Canada Lat: 46.283
Local Time: 6:12 AM GMT ( 6:12 GMT) Lon: -63.133
Time Zone: GMT Elev: 157 ft

Show me the last for .
Show Decoded

2018-07-23 06:00 METAR CYYG 230600Z 22011KT 15SM OVC005 23/22 A3030 RMK SF8 SLP263 DENSITY ALT
                 700FT =
2018-07-23 05:00 METAR CYYG 230500Z 22007KT 10SM OVC005 23/22 A3031 RMK SF8 SLP264 DENSITY ALT
                 700FT =
2018-07-23 04:54 METAR CYYG 230454Z 22007KT 10SM OVC005 23/22 A3030 RMK SF8 SLP263 DENSITY ALT
                 700FT =
2018-07-23 04:00 METAR CYYG 230400Z 22009KT 15SM BKN012 OVC160 23/22 A3031 RMK SC7AC1 SLP264
                 DENSITY ALT 700FT =
2018-07-23 03:33 METAR CYYG 230333Z 22009KT 15SM BKN011 BKN160 BKN270 23/22 A3031 RMK SC5AC1CI1
                 SLP265 DENSITY ALT 700FT =
2018-07-23 03:00 METAR CYYG 230300Z 22009KT 15SM FEW040 BKN160 BKN270 23/22 A3030 RMK SC1AC5CI1
                 SLP263 DENSITY ALT 800FT =
2018-07-23 02:00 METAR CYYG 230200Z 22009KT 15SM FEW040 SCT100 BKN270 24/22 A3031 RMK SC2AC2CI2
                 SLP264 DENSITY ALT 800FT =
2018-07-23 01:00 METAR CYYG 230100Z 20011G16KT 15SM FEW040 SCT100 BKN270 23/22 A3030 RMK
                 SC2AC2CI2 SLP262 DENSITY ALT 800FT =
2018-07-23 00:00 METAR CYYG 230000Z 19009KT 15SM SCT035 BKN150 BKN270 24/22 A3028 RMK SC3AC2CI1
                 SLP255 DENSITY ALT 800FT =
2018-07-22 23:46 METAR CYYG 222346Z 20010KT 15SM SCT035 BKN150 BKN270 24/22 A3028 RMK SC4AC1CI2
                 TCU EMBD E SLP254 DENSITY ALT 900FT =
2018-07-22 23:23 METAR CYYG 222323Z 21010KT 15SM VCSH FEW020CB SCT030 BKN150 BKN270 24/23 A3027
                 RMK CB2SC2AC1CI2 CB SE-S SLP252 DENSITY ALT 900FT =
2018-07-22 23:00 METAR CYYG 222300Z 21008KT 15SM FEW020CB BKN050 BKN100 BKN270 25/22 A3027 RMK
                 CB2CU3AC1CI1 OCNL -SHRA CB SE-SW SLP253 DENSITY ALT 1000FT =
2018-07-22 22:45 METAR CYYG 222245Z 19009KT 15SM -SHRA BKN020 BKN100 25/22 A3028 RMK CU6AC1 TCU
                 EMBD SLP254 DENSITY ALT 1000FT =
2018-07-22 22:00 METAR CYYG 222200Z 17009KT 15SM FEW045 SCT270 27/22 A3026 RMK SC2CI2 SLP248
                 DENSITY ALT 1200FT =
2018-07-22 21:00 METAR CYYG 222100Z 18009KT 15SM SCT045 SCT270 26/22 A3026 RMK SC4CI1 CI TR
                 SLP247 DENSITY ALT 1100FT =
2018-07-22 20:00 METAR CYYG 222000Z 17011KT 15SM SCT050 SCT270 27/21 A3026 RMK SC3CI1 CI TR
                 SLP247 DENSITY ALT 1200FT =
2018-07-22 19:00 METAR CYYG 221900Z 17010KT 15SM SCT045 SCT270 26/20 A3026 RMK SC4CI1 CI TR
                 SLP248 DENSITY ALT 1100FT =
2018-07-22 18:00 METAR CYYG 221800Z 18011KT 15SM FEW060 SCT270 26/16 A3026 RMK SC2CI1 SLP247
                 DENSITY ALT 1100FT =
2018-07-22 17:00 METAR CYYG 221700Z 20008KT 15SM SCT042 SCT270 25/18 A3027 RMK SC3CI1 CI TR
                 SLP250 DENSITY ALT 1000FT =
2018-07-22 16:00 METAR CYYG 221600Z 18012KT 15SM FEW024 BKN260 25/18 A3027 RMK CU1CI4 CB TOPS
                 DIST E SLP253 DENSITY ALT 1000FT =
2018-07-22 15:00 METAR CYYG 221500Z 19008KT 150V230 15SM FEW015 FEW270 24/20 A3028 RMK CU2CI1 CI
                 TR TCU ASOC S CB TOPS DIST E SLP255 DENSITY ALT 900FT =
2018-07-22 14:00 METAR CYYG 221400Z 21008KT 170V230 15SM FEW010 FEW012TCU FEW270 23/20 A3028 RMK
                 CF1TCU1CI1 CI TR TCU S SLP255 DENSITY ALT 800FT =
2018-07-22 13:40 METAR CYYG 221340Z 19009KT 15SM SCT010 SCT270 22/20 A3028 RMK SC4CI1 CI TR TCU
                 EMBD S SLP255 DENSITY ALT 700FT =
2018-07-22 13:00 METAR CYYG 221300Z 20008KT 170V260 15SM OVC013 23/20 A3026 RMK SC8 SLP249
                 DENSITY ALT 800FT =
2018-07-22 12:57 METAR CYYG 221257Z 20007KT 150V260 15SM BKN011 23/20 A3026 RMK SC7 SLP248
                 DENSITY ALT 800FT =
2018-07-22 12:17 METAR CYYG 221217Z 26003KT 210V280 15SM FEW017 FEW270 22/20 A3025 RMK SC2CI1 CI
                 TR TCU EMBD S SLP246 DENSITY ALT 700FT =
2018-07-22 12:00 METAR CYYG 221200Z 22006KT 15SM BKN008 22/20 A3025 RMK SC6 SLP246 DENSITY ALT
                 600FT =
2018-07-22 11:00 METAR CYYG 221100Z 21008KT 15SM OVC005 21/20 A3025 RMK ST8 SLP244 DENSITY ALT
                 500FT =
2018-07-22 10:00 METAR CYYG 221000Z 23006KT 210V290 15SM BKN005 20/20 A3023 RMK SF7 SLP239
                 DENSITY ALT 500FT =
2018-07-22 09:23 METAR CYYG 220923Z 24004KT 15SM BKN006 OVC015 20/20 A3022 RMK SF6SC2 SLP234
                 DENSITY ALT 500FT =
2018-07-22 09:00 METAR CYYG 220900Z 24005KT 15SM FEW004 BKN014 20/20 A3021 RMK ST2SC5 SLP232
                 DENSITY ALT 500FT =
2018-07-22 08:00 METAR CYYG 220800Z 21005KT 15SM BKN004 BKN018 OVC052 20/20 A3020 RMK ST5SC1SC2
                 SLP229 DENSITY ALT 500FT =
2018-07-22 07:00 METAR CYYG 220700Z 24006KT 15SM BKN004 OVC024 20/20 A3020 RMK ST7SC1 SLP228
                 DENSITY ALT 500FT =
2018-07-22 06:29 METAR CYYG 220629Z 20006KT 15SM BKN005 OVC024 19/19 A3020 RMK SF6SC2 SLP227
                 DENSITY ALT 400FT =
2018-07-22 06:16 METAR CYYG 220616Z 22004KT 15SM SCT006 OVC028 19/19 A3019 RMK SF4SC4 SLP224
                 DENSITY ALT 400FT =

Support USWX by starting your Amazon purchase here.